Flag for Canada Weather past 2 weeks in Saint John, New Brunswick, Canada

Now
41 °F

Light rain. Fog.


Feels Like: 37 °F
Forecast: 34 / 46 °F
Wind: 6 mph from East

Location: Saint John


UV Index: 0 (Low)

Visibility: 6 mi


Pressure: 29.32 "Hg

Humidity: 93%

Dew point: 39 °F

Location of Saint JohnLocation

Historic Weather in Saint John

°F

Saint John temperature yesterday

Maximum temperature yesterday: 50 °F (at 3:00 PM)
Minimum temperature yesterday: 46 °F (at 12:00 AM)
Average temperature yesterday: 48 °F

Past Weeks' High & Low Weather Summary

 TemperatureHumidityPressure
High59 °F (Apr 15, 4:00 PM)100% (Apr 11, 12:47 PM)30.85 "Hg (Apr 11, 12:47 PM)
Low21 °F (Apr 17, 5:00 AM)18% (Apr 18, 2:00 PM)29.32 "Hg (Apr 24, 6:00 AM)
Average41 °F73%30.05 "Hg
* Reported Apr 9 6:00 AM — Apr 24 6:00 AM, Saint John, Weather by CustomWeather, © 2014

Note: Actual official high and low records may vary slightly from our data, if they occured in-between our weather recording intervals... More about our weather records

Advertising

Historic Weather Conditions — Data for Previous 24 hours

 ConditionsComfort  
Time TempWeatherWind HumidityBarometerVisibility
6:00 AM
Apr 24
41 °FLight rain. Fog.6 mph93%29.32 "Hg6 mi
5:00 AM41 °FLight rain. Fog.7 mph93%29.33 "Hg4 mi
4:00 AM43 °FLight rain. Fog.6 mph93%29.34 "Hg4 mi
3:00 AM45 °FRain. Fog.10 mph93%29.34 "Hg4 mi
2:00 AM45 °FLight rain. Fog.10 mph100%29.34 "Hg4 mi
1:00 AM46 °FFog.13 mph100%29.35 "Hg3 mi
12:00 AM48 °FFog.12 mph94%29.35 "Hg3 mi
11:47 PM
Apr 23
48 °FFog.10 mph100%29.35 "Hg4 mi
11:00 PM50 °FLight rain. Fog.13 mph94%29.36 "Hg6 mi
10:00 PM48 °FLight rain. Low clouds.13 mph100%29.39 "Hg15 mi
9:00 PM48 °FMore clouds than sun.12 mph94%29.39 "Hg15 mi
8:00 PM48 °FMore clouds than sun.12 mph94%29.39 "Hg15 mi
7:00 PM50 °FSprinkles. Mostly cloudy.10 mph94%29.40 "Hg8 mi
6:52 PM50 °FMostly cloudy.13 mph94%29.40 "Hg10 mi
6:00 PM50 °FSprinkles. Low clouds.8 mph94%29.41 "Hg8 mi
5:00 PM50 °FLow clouds.9 mph94%29.42 "Hg15 mi
4:00 PM50 °FLow clouds.10 mph94%29.42 "Hg15 mi
3:51 PM50 °FLow clouds.12 mph94%29.43 "Hg12 mi
3:00 PM50 °FScattered clouds.10 mph94%29.44 "Hg15 mi
2:00 PM48 °FSprinkles. More clouds than sun.12 mph100%29.44 "Hg8 mi
1:00 PM46 °FSprinkles. More clouds than sun.12 mph93%29.46 "Hg8 mi
12:00 PM46 °FSprinkles. More clouds than sun.10 mph93%29.48 "Hg8 mi
11:00 AM46 °FMostly cloudy.15 mph93%29.48 "Hg15 mi
10:03 AM48 °FSprinkles. Mostly cloudy.14 mph82%29.49 "Hg15 mi
9:00 AM46 °FMostly cloudy.14 mph87%29.50 "Hg15 mi
8:00 AM46 °FMostly cloudy.13 mph87%29.51 "Hg12 mi
7:00 AM46 °FSprinkles. Mostly cloudy.12 mph93%29.52 "Hg10 mi
Weather by CustomWeather, © 2014

See weather overview